Tracking 35275 objects as of 8-Sep-2026
HD Live streaming from Space Station
objects crossing your sky now

COSMOS 1702 DEB


COSMOS 1702 DEB is no longer on orbit


NORAD ID: 16285
Int'l Code: 1985-106C
Launch date: November 13, 1985
Source: Commonwealth of Independent States (former USSR) (CIS)
Launch site: PLESETSK MISSILE AND SPACE COMPLEX (PKMTR)
Decay date: 1986-05-31

Note: This is SATELLITE DEBRIS
Your satellite tracking list
Your tracking list is empty




NASA's NSSDC Master Catalog

Two Line Element Set (TLE):
1 16285U 85106C   86151.44407433  .09520759 +84863-5 +13217-2 0  9999
2 16285 072.8334 116.8621 0014420 221.2715 138.8209 16.34577150031360
Source of the keplerian elements: AFSPC